This is the latest recevied weather packets stored in our database for station/object SQ7ACP-3. If no packets are shown the sender has not sent any weather packets the latest 10 day(s).
| Time | Temp. | Humidity | Pressure | Rain* | Wind** | Luminosity | Snow |
|---|---|---|---|---|---|---|---|
| 1778045703 | 15° C | 61% | 1004.5 hPa | 0 mm | - | - | - |
| 1778045103 | 14.44° C | 61% | 1004.5 hPa | 0 mm | - | - | - |
| 1778044490 | 13.89° C | 63% | 1004.6 hPa | 0 mm | - | - | - |
| 1778043890 | 12.78° C | 65% | 1004.6 hPa | 0 mm | - | - | - |
| 1778042678 | 11.11° C | 71% | 1004.6 hPa | 0 mm | - | - | - |
| 1778042065 | 10° C | 75% | 1004.6 hPa | 0 mm | - | - | - |
| 1778041466 | 10° C | 76% | 1004.6 hPa | 0 mm | - | - | - |
| 1778040863 | 9.44° C | 77% | 1004.6 hPa | 0 mm | - | - | - |
| 1778040241 | 9.44° C | 75% | 1004.5 hPa | 0 mm | - | - | - |
| 1778039628 | 8.89° C | 76% | 1004.5 hPa | 0 mm | - | - | - |
| 1778039019 | 8.89° C | 77% | 1004.4 hPa | 0 mm | - | - | - |
| 1778038416 | 8.89° C | 77% | 1004.4 hPa | 0 mm | - | - | - |
| 1778037803 | 8.89° C | 77% | 1004.5 hPa | 0 mm | - | - | - |
| 1778037203 | 8.89° C | 77% | 1004.5 hPa | 0 mm | - | - | - |
| 1778036590 | 8.89° C | 76% | 1004.6 hPa | 0 mm | - | - | - |
| 1778035990 | 8.89° C | 75% | 1004.7 hPa | 0 mm | - | - | - |
| 1778035378 | 9.44° C | 74% | 1004.7 hPa | 0 mm | - | - | - |
| 1778034766 | 9.44° C | 74% | 1004.7 hPa | 0 mm | - | - | - |
| 1778034153 | 9.44° C | 73% | 1004.7 hPa | 0 mm | - | - | - |
| 1778033540 | 9.44° C | 74% | 1004.8 hPa | 0 mm | - | - | - |
| 1778032930 | 11.67° C | 66% | 1005.2 hPa | 0 mm | - | - | - |
| 1778024628 | 11.67° C | 65% | 1005.2 hPa | 0 mm | - | - | - |
| 1778024016 | 12.22° C | 63% | 1005.3 hPa | 0 mm | - | - | - |
| 1778023415 | 12.78° C | 62% | 1005.2 hPa | 0 mm | - | - | - |
| 1778022803 | 13.33° C | 59% | 1005.1 hPa | 0 mm | - | - | - |
* Rain latest hour (hover to see other rain measurements)
** Current wind speed in m/s (hover to see current wind gust speed)